Regional Weather Roundup
Issued by NWS

Home | Current Version | Previous Version | Text Only | Print | Product List | Glossary Off
Versions: 1 2 3 4 5 6 7 8 9 10 11 12 13 14 15 16 17 18 19 20 21 22 23 24 25 26 27 28 29 30 31 32 33 34 35 36 37 38 39 40 41 42 43 44 45 46 47 48 49 50

242
ASUS45 KCYS 131610
RWRWY

WYOMING REGIONAL WEATHER ROUNDUP
NATIONAL WEATHER SERVICE CHEYENNE WY
900 AM MST SAT FEB 13 2016

NOTE:  "FAIR" INDICATES FEW OR NO CLOUDS BELOW 12,000 FEET
WITH NO SIGNIFICANT WEATHER AND/OR OBSTRUCTIONS TO VISIBILITY.

WYZ001-131700-
YELLOWSTONE NATIONAL PARK

CITY           SKY/WX    TMP DP  RH WIND       PRES   REMARKS
LK YELLOWSTONE   N/A     31  17  56 VRB6      30.07F WCI  25
W YELLOWSTONE  NOT AVBL

$$
WYZ002>013-054>058-071-098>099-131700-
NORTHERN WYOMING

CITY           SKY/WX    TMP DP  RH WIND       PRES   REMARKS
JACKSON        SUNNY     27  21  80 CALM      30.11F
CODY           FAIR      52  25  35 W9G16     29.93F
GREYBULL       FAIR      33  30  88 VRB3      29.95F
WORLAND        FAIR      29  27  92 VRB7      29.96F WCI  22
SHERIDAN       FAIR      41  31  67 CALM      29.87S
BUFFALO        FAIR      47  28  47 S3        29.90F
GILLETTE       FAIR      36  30  79 SE3       29.92F
HULETT         CLOUDY    34  30  86 SW3       29.94S
NEWCASTLE      FAIR      30  28  93 CALM      29.98F

$$
WYZ014>020-022>026-101>103-131700-
CENTRAL WYOMING

CITY           SKY/WX    TMP DP  RH WIND       PRES   REMARKS
BIG PINEY      FAIR      21  18  88 E3        30.17S
PINEDALE         N/A    N/A N/A N/A MISG        N/A
DUBOIS         FAIR      36  21  55 NW12      30.05F WCI  27
LANDER         FAIR      40  21  46 W6G17     30.03S
RIVERTON       FAIR      34  25  69 SW8       30.04S WCI  27
CASPER         FAIR      41  21  44 SW22      30.02F
DOUGLAS        PTSUNNY   30  29  96 SE6       30.00F FOG     WCI  24

$$
WYZ021-027>030-104>119-131700-
SOUTHERN WYOMING

CITY           SKY/WX    TMP DP  RH WIND       PRES   REMARKS
EVANSTON       FAIR      31  14  49 SW9       30.24R WCI  23
KEMMERER       FAIR      32  16  51 CALM      30.21
FORT BRIDGER   SUNNY     36  21  55 W14       30.24R WCI  27
ROCK SPRINGS   CLOUDY    36  17  46 SW16      30.18F WCI  26
DIXON          FAIR      21  14  73 CALM      30.25S
RAWLINS        PTSUNNY   38  20  48 W22       30.15R WCI  27
SARATOGA       FAIR      37  23  56 NE6       30.18R WCI  33
LARAMIE        FAIR      46  13  26 SW20      30.10R
CHEYENNE       FAIR      52  18  26 SW10      30.06S
TORRINGTON     FOG       29  28  96 CALM      30.03S VSB 1/4
PINE BLUFFS    CLOUDY    30  30 100 SW6       30.06F FOG     WCI  24

$$




USA.gov is the U.S. government's official web portal to all federal, state and local government web resources and services.